Content
SEND FEEDBACK

Daily
Averages
Monthly
Summary
United States of America

NELIGH, NEBRASKA


Home > North America > United States > Nebraska
Elevation: 1750 feet     Latitude: 42 08N     Longitude: 098 02W

WEATHER
 
SELECT A DAY
Number of Records: 237,586;   Date Range: 8/16/04 - 4/16/14
 
SHARE

PRINT THIS DATA

[ ← Previous Day ]
WEATHER ALMANAC - FEBRUARY 13, 2013
[ Next Day → ]
[ °C ]   °F
Weather ElementAverageHighLow
Temperature39.2 °F54.5 °F (2:15 pm)22.6 °F (3:15 am)
Dewpoint24.3 °F30.2 °F (10:35 pm)19.8 °F (3:15 am)
Humidity59.8 %89 % (3:15 am)28 % (1:15 pm)
Barometer29.80 in29.89 in (12:35 am)29.72 in (2:35 pm)
Wind Speed7.1 mph16.1 mph (2:15 pm)
Wind Gust24.2 mph (2:35 pm)
Weather ElementAverage
Visibility10 mi
Wind DirectionWSW (246.3 °)

Weather ElementTotal
Precipitation---
Heating Degree Days26.5 (Base 65)
Averaged from 70 records on February 13, 2013
WEATHER CONDITIONS BREAKOUT
WIND DIRECTION BREAKOUT
WEATHER BY HOUR - FEBRUARY 13, 2013
[ °C ]   °F
Local TimeTemperatureDewpointHumidityBarometerVisibilityWind DirectionWind SpeedGust SpeedPrecipitationEventsConditions
12:35 AM30.7 °F23.9 °F76 %29.89 in10.0 miNNW (330°)9.2 mphClear
12:55 AM31.1 °F23.9 °F75 %29.89 in10.0 miNNW (340°)4.6 mphScattered Clouds
1:15 AM30.2 °F23.2 °F75 %29.89 in10.0 miNNW (330°)5.8 mphClear
1:35 AM26.8 °F21.7 °F81 %29.89 in10.0 miNNW (340°)5.8 mphClear
1:55 AM29.5 °F23.4 °F78 %29.88 in10.0 miNorth (350°)5.8 mphClear
2:15 AM29.3 °F23.2 °F78 %29.88 in10.0 miNNW (340°)6.9 mphClear
2:35 AM25.7 °F21.2 °F83 %29.88 in10.0 miNNW (330°)3.5 mphClear
2:55 AM23.9 °F20.3 °F86 %29.88 in10.0 miCalmScattered Clouds
3:15 AM22.6 °F19.8 °F89 %29.87 in10.0 miCalmMostly Cloudy
3:35 AM24.4 °F20.8 °F86 %29.86 in10.0 miCalmScattered Clouds
3:55 AM24.1 °F21.0 °F88 %29.85 in10.0 miNNW (330°)3.5 mphClear
4:15 AM25.3 °F21.7 °F86 %29.84 in10.0 miNW (320°)3.5 mphScattered Clouds
4:35 AM23.5 °F20.3 °F87 %29.85 in10.0 miNW (310°)3.5 mphScattered Clouds
4:55 AM23.0 °F20.1 °F89 %29.84 in10.0 miWest (280°)3.5 mphScattered Clouds
5:15 AM22.8 °F20.1 °F89 %29.84 in10.0 miCalmClear
5:35 AM24.4 °F21.4 °F88 %29.84 in10.0 miCalmClear
6:15 AM25.2 °F21.6 °F86 %29.84 in10.0 miCalmClear
6:35 AM23.9 °F20.7 °F87 %29.84 in10.0 miCalmClear
6:55 AM24.8 °F21.4 °F87 %29.84 in10.0 miNNW (330°)4.6 mphClear
7:15 AM25.5 °F21.7 °F86 %29.83 in10.0 miNW (310°)3.5 mphClear
7:35 AM22.6 °F19.9 °F89 %29.83 in10.0 miCalmClear
7:55 AM23.5 °F19.9 °F86 %29.83 in10.0 miNNW (330°)3.5 mphClear
8:15 AM25.0 °F21.7 °F87 %29.83 in10.0 miCalmClear
8:35 AM29.8 °F24.3 °F80 %29.83 in10.0 miCalmClear
8:55 AM32.4 °F24.6 °F73 %29.82 in10.0 miWNW (290°)3.5 mphClear
9:15 AM34.7 °F25.3 °F69 %29.82 in10.0 miCalmClear
9:35 AM37.4 °F25.5 °F62 %29.82 in10.0 miWNW (300°)8.1 mphClear
9:55 AM39.6 °F25.3 °F57 %29.82 in10.0 miWest (260°)5.8 mphClear
10:15 AM41.2 °F24.8 °F52 %29.82 in10.0 miWNW (290°)6.9 mphClear
10:35 AM43.3 °F24.8 °F48 %29.81 in10.0 miWest (260°)5.8 mphClear
10:55 AM45.1 °F24.6 °F45 %29.80 in10.0 miWSW (240°)5.8 mphClear
11:15 AM47.3 °F23.4 °F39 %29.80 in10.0 miWest (270°)8.1 mphClear
11:35 AM48.9 °F23.5 °F37 %29.80 in10.0 miWest (260°)8.1 mphClear
11:55 AM49.8 °F22.5 °F34 %29.79 in10.0 miWSW (250°)11.5 mph16.1 mphClear
12:15 PM50.4 °F21.4 °F32 %29.79 in10.0 miWest (270°)11.5 mph17.3 mphClear
12:35 PM51.3 °F21.4 °F31 %29.79 in10.0 miWNW (290°)11.5 mph19.6 mphClear
12:55 PM52.0 °F20.1 °F29 %29.77 in10.0 miWest (260°)9.2 mph20.7 mphClear
1:15 PM52.7 °F20.1 °F28 %29.76 in10.0 miWest (280°)15.0 mph21.9 mphScattered Clouds
1:35 PM52.9 °F20.7 °F28 %29.75 in10.0 miWest (270°)12.7 mph18.4 mphScattered Clouds
1:55 PM54.1 °F21.4 °F28 %29.73 in10.0 miWest (280°)9.2 mph16.1 mphScattered Clouds
2:15 PM54.5 °F22.3 °F29 %29.73 in10.0 miWest (280°)16.1 mph20.7 mphClear
2:35 PM54.3 °F23.0 °F30 %29.72 in10.0 miWest (280°)15.0 mph24.2 mphScattered Clouds
2:55 PM53.1 °F23.9 °F32 %29.72 in10.0 miWest (280°)13.8 mph21.9 mphScattered Clouds
3:15 PM53.2 °F24.1 °F32 %29.72 in10.0 miWest (280°)12.7 mph18.4 mphClear
3:35 PM53.4 °F23.7 °F32 %29.72 in10.0 miWNW (290°)11.5 mph17.3 mphScattered Clouds
3:55 PM51.8 °F24.4 °F34 %29.73 in10.0 miWest (280°)13.8 mph18.4 mphMostly Cloudy
4:15 PM51.4 °F24.8 °F35 %29.74 in10.0 miWNW (290°)13.8 mph23.0 mphScattered Clouds
4:35 PM51.8 °F25.7 °F36 %29.73 in10.0 miWNW (290°)15.0 mph19.6 mphScattered Clouds
4:55 PM52.2 °F26.2 °F37 %29.73 in10.0 miWNW (300°)13.8 mph20.7 mphScattered Clouds
5:15 PM52.0 °F26.6 °F37 %29.73 in10.0 miWNW (290°)12.7 mph20.7 mphClear
5:35 PM50.5 °F27.1 °F40 %29.73 in10.0 miWest (280°)8.1 mphScattered Clouds
5:55 PM50.5 °F26.4 °F39 %29.73 in10.0 miWNW (290°)8.1 mphOvercast
6:15 PM49.5 °F26.2 °F40 %29.73 in10.0 miWest (280°)9.2 mph16.1 mphOvercast
6:35 PM47.3 °F26.8 °F45 %29.74 in10.0 miWest (280°)4.6 mphMostly Cloudy
6:55 PM45.0 °F27.1 °F50 %29.75 in10.0 miWest (270°)3.5 mphScattered Clouds
7:15 PM42.6 °F27.1 °F54 %29.75 in10.0 miCalmClear
7:35 PM41.5 °F27.7 °F58 %29.76 in10.0 miWNW (290°)5.8 mphClear
7:55 PM40.5 °F27.7 °F60 %29.76 in10.0 miWNW (290°)4.6 mphClear
8:15 PM39.9 °F28.2 °F63 %29.77 in10.0 miNW (310°)6.9 mphClear
8:35 PM39.4 °F28.2 °F64 %29.77 in10.0 miNW (310°)6.9 mphScattered Clouds
8:55 PM41.9 °F28.9 °F60 %29.77 in10.0 miWNW (300°)8.1 mphMostly Cloudy
9:15 PM41.4 °F29.1 °F62 %29.78 in10.0 miNW (310°)6.9 mphMostly Cloudy
9:35 PM43.7 °F29.8 °F58 %29.79 in10.0 miNW (320°)11.5 mphOvercast
9:55 PM41.9 °F29.8 °F62 %29.79 in10.0 miNW (320°)8.1 mphOvercast
10:15 PM41.9 °F30.0 °F63 %29.79 in10.0 miNW (320°)9.2 mphOvercast
10:35 PM41.5 °F30.2 °F64 %29.81 in10.0 miNW (310°)9.2 mphMostly Cloudy
10:55 PM42.4 °F30.2 °F62 %29.81 in10.0 miNW (320°)15.0 mphMostly Cloudy
11:15 PM41.0 °F29.3 °F63 %29.82 in10.0 miNW (320°)11.5 mphScattered Clouds
11:35 PM41.0 °F29.7 °F64 %29.83 in10.0 miNW (310°)10.4 mphScattered Clouds
11:55 PM41.0 °F29.8 °F64 %29.83 in10.0 miNW (310°)12.7 mph18.4 mphMostly Cloudy
Hourly data recorded from KBVN, located 27.97 miles away from Neligh, Nebraska







STORIES FROM OUR PARTNERS